Wind_Speed
26 25 24 22 22 21 21 20 19 18 16 15 14 13 11 10 9 9 9 8 7 6 6 6 6 5 5 5 6 6 6 6 6 6 6 5 5 5 5 5 5 6 6
30 28 28 26 25 24 23 23 21 20 19 17 16 15 14 13 12 12 12 11 10 9 9 8 9 8 8 8 8 9 9 9 9 9 9 9 8 8 8 8 8 8 8
33 32 32 30 29 28 27 26 24 23 21 20 18 17 16 16 16 15 15 15 13 12 12 11 11 11 11 11 11 11 11 11 11 11 11 11 11 12 12 11 11 11 11
37 36 34 33 32 31 30 29 27 26 24 22 21 19 18 17 18 17 17 18 16 15 14 14 14 14 13 13 13 13 13 13 14 14 14 14 14 14 14 14 14 13 13
41 39 38 36 36 35 33 31 29 28 27 25 23 22 20 19 19 19 19 19 19 19 17 16 16 15 16 15 15 15 15 15 15 15 15 15 15 16 16 16 16 16 16
44 42 40 39 37 37 36 35 33 31 28 27 25 23 22 21 21 20 20 20 20 20 20 19 18 18 17 17 17 18 17 17 17 17 16 17 17 17 17 17 17 17 18
48 46 44 41 39 38 37 36 34 33 30 28 25 24 23 23 23 23 22 22 22 22 22 22 21 20 20 19 19 19 19 19 19 19 18 18 18 18 18 18 19 19 19
50 48 47 46 41 38 37 36 33 32 32 29 26 23 22 22 22 23 23 24 23 23 23 23 23 23 22 22 21 21 21 21 21 20 20 20 20 20 20 20 20 20 20
50 49 47 47 44 41 37 36 34 32 31 29 28 25 22 22 21 20 21 22 23 24 24 24 24 23 23 23 23 22 22 22 22 22 22 22 21 21 21 21 22 22 21
49 49 46 46 45 42 39 37 36 35 32 29 27 26 25 24 23 21 21 21 22 23 24 24 24 24 23 23 23 23 23 23 23 24 24 24 23 23 23 23 23 23 23
45 46 46 44 43 42 41 39 37 34 33 30 28 27 25 25 23 23 22 23 23 23 23 24 25 25 24 24 24 25 25 25 24 24 25 25 25 24 24 24 24 24 24
40 42 42 41 41 41 40 40 37 35 33 32 30 29 27 27 26 24 24 24 24 23 22 23 24 25 25 24 25 26 27 26 26 25 26 26 26 26 26 25 25 25 26
33 36 37 37 37 38 38 40 38 36 34 32 30 30 30 29 29 28 26 26 26 26 25 25 25 25 25 25 25 27 27 27 27 26 27 27 27 27 27 27 27 27 26
27 29 31 33 34 35 36 38 38 37 35 32 31 31 30 30 30 29 29 28 28 28 27 27 27 27 26 26 26 27 27 28 27 28 28 28 28 28 28 28 28 28 27
19 22 25 29 31 32 34 35 36 35 35 34 34 33 31 31 31 30 30 30 29 29 28 28 28 29 29 29 29 30 29 29 29 29 30 30 30 30 29 29 30 29 29
12 16 20 24 26 28 31 32 33 34 34 35 35 34 34 33 32 32 31 31 31 30 30 29 30 30 31 30 30 31 31 31 31 31 31 31 32 31 31 31 30 30 28
9 11 15 18 21 24 26 28 30 32 33 34 35 35 35 35 35 34 34 33 32 32 32 31 31 31 31 32 31 32 32 32 32 32 32 31 31 32 32 31 30 28 27
6 8 11 13 16 19 22 24 26 29 31 32 33 34 35 35 36 36 34 34 34 33 33 32 31 31 30 30 30 29 30 30 30 31 31 31 30 30 30 29 28 27 25
6 5 6 9 11 15 18 21 23 25 27 29 30 31 32 33 34 35 34 34 34 34 33 32 30 30 29 29 28 27 27 26 26 27 28 28 28 27 26 25 24 23 23
8 7 5 6 8 11 15 18 20 22 24 26 27 29 30 31 32 33 34 34 34 34 33 32 31 29 29 29 26 26 25 23 23 25 24 24 24 23 22 21 20 19 19
11 9 8 7 8 10 12 15 18 20 23 24 26 27 28 29 29 29 30 31 32 32 32 31 30 29 28 26 24 23 22 21 21 22 21 20 19 18 18 17 16 16 17
13 12 11 10 10 11 12 14 16 18 20 21 23 24 25 26 27 27 28 28 29 29 29 28 28 27 25 24 22 21 20 20 21 20 18 16 15 14 14 14 14 14 14
16 15 14 13 12 12 13 14 15 16 18 20 21 22 22 23 24 24 24 24 24 24 25 24 23 23 24 23 22 22 21 21 19 18 17 16 15 14 13 13 13 13 13
19 18 17 15 13 13 12 12 13 15 17 18 19 20 20 21 21 20 20 20 20 20 20 21 21 21 21 22 22 21 20 19 17 16 16 15 13 12 11 11 11 12 13
21 20 19 17 15 14 13 12 12 13 14 15 17 18 18 18 18 18 18 17 18 18 18 19 19 19 19 19 19 19 18 17 15 15 14 13 12 11 11 10 10 10 10
22 22 21 19 17 16 14 12 11 11 11 13 14 15 16 15 16 16 16 15 15 15 16 16 17 18 17 16 16 16 15 14 13 13 12 11 10 10 9 8 8 7 7
Wind_Direction
250 250 246 243 245 246 246 246 246 246 244 241 240 240 240 238 231 236 241 240 241 244 248 251 254 260 269 276 286 293 297 298 298 298 298 296 293 291 289 285 279 271 266
253 251 249 245 245 246 246 246 246 245 246 244 243 243 242 243 239 237 243 244 244 246 249 253 255 259 263 268 274 281 285 289 291 292 293 293 291 289 287 284 283 278 273
256 253 250 246 245 245 245 245 246 245 245 244 245 245 244 243 244 241 242 245 245 247 250 253 256 258 261 265 270 275 279 282 286 288 289 290 291 290 289 286 284 282 279
257 255 253 249 246 245 247 245 245 245 244 244 244 245 247 245 245 243 241 243 246 247 249 253 257 259 260 262 266 271 274 278 281 284 286 287 288 289 289 287 286 285 283
263 260 256 252 249 246 245 244 245 244 243 242 243 244 246 247 246 245 243 242 244 247 249 251 256 260 261 261 263 267 270 273 276 280 282 284 285 286 287 287 286 285 285
263 262 260 257 253 250 248 246 244 243 242 243 243 244 246 247 247 247 246 244 244 245 248 250 254 259 262 262 263 265 267 270 273 275 279 281 283 284 285 286 286 285 285
260 259 259 260 257 254 253 250 246 243 242 240 240 243 246 248 247 247 248 248 246 244 246 250 253 257 259 262 263 265 266 268 271 273 277 279 281 283 283 284 285 286 286
260 259 260 260 259 256 254 252 248 243 241 239 238 241 244 244 245 246 247 249 248 246 246 249 251 255 259 260 262 263 264 266 269 272 275 277 280 282 283 283 284 286 286
259 259 259 257 256 254 252 251 247 244 242 239 240 241 240 240 242 247 248 249 249 248 249 251 250 252 255 259 262 262 263 264 267 270 273 275 278 280 282 283 284 285 286
257 257 256 255 254 253 251 249 249 245 242 239 238 240 240 242 243 246 249 249 248 249 250 252 253 252 253 255 260 263 263 264 265 268 270 273 275 278 281 282 284 285 285
253 253 252 252 251 250 250 250 247 245 242 241 240 241 240 242 242 244 244 246 248 249 251 253 254 255 255 254 258 262 262 263 264 266 268 270 273 276 279 281 282 284 284
250 249 248 249 249 248 248 248 245 243 241 242 241 241 240 241 241 243 244 242 244 246 248 253 255 256 257 255 256 259 260 261 263 265 267 268 271 273 276 278 281 282 283
248 245 243 243 244 244 245 245 244 242 241 241 241 240 240 241 240 241 243 244 245 245 247 250 252 255 258 258 257 257 258 260 261 264 266 267 269 271 273 275 277 280 282
245 242 239 238 239 239 240 240 241 241 239 240 240 240 240 242 242 244 244 245 246 246 247 248 250 252 255 259 258 256 257 258 259 262 265 267 268 269 271 273 275 278 280
246 240 237 234 234 235 236 236 238 240 240 239 240 241 241 243 243 243 244 244 245 247 247 249 251 252 255 257 256 257 257 258 259 261 264 265 267 268 270 272 275 276 276
250 241 237 234 233 233 234 236 238 239 239 239 239 240 240 243 242 244 246 246 247 249 250 251 253 255 257 259 259 257 258 259 260 262 263 264 266 268 269 271 273 275 275
265 250 241 238 237 237 237 239 239 239 241 241 241 241 241 243 243 245 247 248 249 250 251 252 255 257 258 259 259 259 258 259 261 261 261 263 266 268 269 270 270 271 273
296 264 254 248 244 242 240 241 242 242 243 243 244 244 244 245 245 246 247 248 249 250 252 254 256 257 257 259 259 261 261 261 260 259 260 263 265 268 268 268 268 270 272
352 317 282 269 257 250 246 245 245 245 246 246 246 245 246 246 246 247 248 248 250 252 253 254 256 255 255 258 260 260 262 261 258 259 262 262 263 263 264 265 268 271 272
4 346 322 297 276 263 256 252 250 249 249 248 248 247 247 247 247 247 249 249 250 251 252 253 254 255 256 257 259 257 258 258 257 259 260 261 260 259 261 263 267 269 273
5 356 341 319 297 280 269 262 258 255 252 250 249 248 249 248 247 249 249 249 250 250 251 252 253 253 254 252 252 253 252 252 254 255 258 259 256 256 258 260 264 270 273
5 356 345 330 313 295 281 272 267 261 256 253 250 248 248 248 248 249 250 250 249 249 249 250 249 249 247 247 246 246 248 246 248 250 249 248 247 251 255 258 265 271 273
5 358 348 336 323 309 296 284 274 265 259 255 252 250 249 248 248 249 249 249 248 246 245 245 244 243 241 241 241 241 242 241 242 240 239 240 246 252 255 259 265 270 276
8 3 356 347 337 326 314 300 284 271 263 256 252 250 248 246 246 245 244 243 242 239 237 236 235 235 236 236 234 233 231 230 231 233 234 239 242 245 254 260 266 271 277
9 6 2 357 350 342 330 315 298 281 266 256 248 245 244 243 241 237 236 236 235 235 232 227 224 222 224 223 220 219 219 220 224 228 231 235 240 246 252 257 263 270 278
12 10 8 4 359 353 344 331 313 292 272 255 243 236 234 231 224 219 221 221 220 220 217 213 212 212 210 207 205 206 209 214 219 224 228 230 236 240 245 249 255 264 276
Height
5892 5894 5896 5897 5898 5899 5900 5901 5903 5904 5905 5906 5906 5907 5908 5909 5911 5911 5911 5912 5912 5913 5913 5914 5915 5915 5916 5917 5917 5918 5918 5918 5919 5919 5919 5920 5920 5920 5920 5920 5920 5921 5921
5885 5887 5889 5891 5893 5894 5896 5897 5898 5900 5901 5902 5903 5904 5905 5906 5907 5909 5909 5910 5910 5911 5912 5913 5913 5914 5915 5916 5916 5917 5917 5918 5918 5918 5919 5919 5919 5919 5919 5919 5919 5919 5919
5878 5880 5882 5884 5886 5888 5890 5891 5893 5895 5896 5897 5898 5900 5901 5902 5903 5905 5906 5907 5908 5909 5910 5911 5912 5912 5913 5914 5915 5915 5916 5916 5917 5917 5917 5917 5918 5917 5917 5917 5917 5917 5917
5869 5871 5873 5876 5879 5881 5883 5885 5887 5889 5891 5893 5894 5895 5896 5898 5899 5901 5903 5904 5905 5906 5907 5908 5909 5910 5911 5912 5913 5913 5914 5915 5915 5915 5916 5916 5916 5916 5916 5915 5915 5915 5915
5860 5862 5864 5867 5870 5873 5876 5878 5880 5882 5885 5887 5888 5890 5892 5893 5895 5896 5898 5900 5902 5903 5904 5905 5906 5907 5908 5909 5910 5911 5911 5912 5913 5913 5913 5913 5914 5914 5913 5913 5913 5913 5913
5852 5854 5856 5859 5862 5865 5868 5870 5873 5875 5878 5881 5883 5885 5887 5888 5890 5891 5893 5895 5897 5899 5899 5901 5902 5903 5904 5905 5906 5907 5908 5909 5909 5910 5910 5911 5911 5911 5911 5911 5910 5910 5909
5842 5845 5848 5851 5854 5857 5860 5863 5865 5868 5871 5874 5877 5879 5881 5882 5884 5886 5887 5889 5891 5894 5895 5896 5898 5899 5900 5901 5902 5903 5904 5905 5906 5906 5907 5907 5907 5907 5907 5907 5907 5906 5906
5830 5834 5838 5842 5845 5849 5852 5855 5857 5860 5863 5866 5869 5872 5874 5876 5877 5879 5881 5883 5885 5888 5890 5892 5893 5894 5895 5897 5898 5899 5900 5901 5901 5902 5903 5903 5903 5904 5904 5903 5903 5903 5902
5818 5822 5827 5832 5836 5840 5844 5847 5850 5852 5856 5859 5862 5865 5867 5869 5871 5874 5875 5877 5879 5882 5884 5886 5887 5889 5891 5892 5893 5894 5895 5896 5897 5898 5898 5899 5899 5899 5899 5899 5899 5899 5898
5806 5810 5815 5820 5825 5830 5834 5838 5841 5844 5848 5851 5854 5857 5860 5862 5865 5867 5870 5871 5873 5875 5878 5880 5881 5883 5886 5887 5887 5889 5890 5891 5892 5892 5893 5894 5894 5895 5895 5895 5894 5894 5893
5793 5798 5804 5809 5814 5820 5825 5829 5833 5836 5839 5843 5846 5850 5853 5856 5858 5860 5863 5865 5867 5869 5871 5874 5876 5877 5880 5882 5883 5883 5884 5885 5886 5887 5888 5888 5889 5890 5890 5890 5890 5889 5888
5782 5787 5792 5798 5803 5809 5814 5819 5823 5827 5831 5834 5838 5842 5845 5848 5851 5853 5856 5858 5861 5863 5865 5867 5869 5871 5873 5875 5877 5877 5878 5879 5880 5881 5882 5883 5884 5884 5885 5885 5884 5884 5883
5772 5776 5782 5787 5793 5799 5804 5809 5813 5817 5821 5825 5829 5833 5836 5840 5843 5846 5849 5851 5854 5856 5858 5861 5862 5864 5866 5868 5870 5871 5872 5873 5874 5875 5876 5877 5878 5878 5879 5879 5879 5878 5877
5764 5768 5773 5778 5784 5789 5794 5799 5804 5808 5812 5816 5820 5824 5827 5831 5834 5837 5840 5843 5846 5849 5851 5854 5856 5857 5859 5861 5863 5864 5865 5867 5868 5869 5870 5871 5871 5872 5872 5872 5872 5872 5872
5759 5762 5766 5770 5775 5780 5785 5790 5795 5799 5803 5807 5811 5815 5819 5822 5825 5829 5832 5835 5838 5841 5843 5846 5848 5850 5852 5854 5856 5857 5859 5860 5861 5863 5863 5864 5864 5865 5865 5866 5866 5866 5866
5756 5758 5761 5764 5769 5773 5777 5781 5786 5790 5793 5797 5801 5805 5810 5813 5816 5820 5823 5826 5829 5832 5835 5837 5840 5842 5844 5846 5848 5849 5851 5852 5854 5855 5856 5857 5857 5858 5858 5858 5859 5859 5859
5754 5756 5758 5760 5763 5767 5770 5774 5778 5781 5785 5788 5792 5796 5800 5804 5807 5811 5814 5817 5820 5823 5827 5829 5831 5833 5836 5838 5840 5841 5844 5845 5846 5847 5848 5849 5850 5850 5851 5851 5851 5851 5852
5754 5755 5756 5758 5760 5762 5765 5768 5771 5774 5777 5780 5784 5787 5791 5794 5798 5801 5804 5808 5811 5815 5818 5821 5823 5825 5828 5830 5832 5834 5835 5837 5838 5839 5840 5841 5842 5843 5843 5844 5844 5845 5846
5755 5754 5755 5756 5757 5758 5760 5763 5765 5767 5770 5773 5775 5778 5782 5785 5789 5792 5795 5799 5803 5806 5809 5812 5814 5817 5820 5822 5824 5826 5828 5829 5830 5831 5832 5833 5834 5835 5836 5837 5838 5839 5840
5756 5755 5754 5754 5755 5755 5757 5758 5760 5762 5763 5765 5768 5771 5773 5777 5780 5784 5787 5790 5793 5797 5800 5803 5807 5809 5812 5814 5816 5818 5820 5822 5823 5824 5825 5827 5828 5829 5830 5832 5833 5834 5834
5757 5756 5754 5754 5753 5753 5753 5754 5755 5756 5757 5759 5761 5764 5766 5769 5772 5775 5778 5781 5785 5788 5791 5795 5798 5801 5804 5807 5809 5811 5813 5816 5817 5818 5819 5821 5822 5824 5825 5827 5828 5829 5829
5758 5756 5754 5752 5751 5750 5749 5749 5749 5749 5750 5752 5754 5757 5759 5762 5765 5768 5771 5774 5777 5780 5783 5786 5790 5793 5796 5799 5802 5805 5807 5810 5812 5813 5814 5816 5818 5819 5821 5822 5823 5824 5825
5758 5755 5752 5750 5748 5746 5745 5744 5743 5743 5744 5746 5748 5750 5752 5755 5758 5761 5763 5766 5769 5772 5776 5779 5782 5786 5789 5793 5796 5799 5801 5803 5806 5808 5810 5812 5814 5815 5817 5818 5819 5820 5820
5758 5754 5750 5747 5744 5742 5741 5739 5738 5738 5738 5739 5741 5743 5746 5748 5751 5754 5757 5760 5763 5766 5769 5773 5776 5780 5783 5786 5790 5793 5796 5798 5801 5803 5806 5808 5810 5811 5813 5814 5815 5816 5816
5758 5754 5749 5745 5742 5739 5737 5734 5733 5732 5732 5733 5735 5737 5740 5742 5746 5749 5752 5755 5758 5762 5765 5768 5771 5775 5778 5781 5785 5788 5791 5794 5797 5800 5802 5805 5806 5808 5809 5810 5811 5812 5812
5759 5754 5749 5744 5741 5737 5733 5730 5728 5727 5726 5727 5729 5732 5735 5738 5741 5745 5748 5752 5755 5758 5761 5764 5768 5771 5774 5778 5781 5785 5788 5791 5794 5796 5799 5801 5803 5805 5806 5807 5808 5809 5809